Location: Beekmeers
(50.8953°N, 3.6968°E)
Time: 13:58:11
(UTC+00:00)

Cosmos 2074 Rocket - Pass Details

Date: 23 May 2024
Orbit: 966 x 986 km, 82.9° (Epoch: 19 June)

Event Time Altitude Azimuth Distance (km) Brightness Sun altitude
Exits shadow 02:48:45 - 188° (S) 3,460 6.4 -7.5°
Reaches altitude 10° 02:50:43 10° 188° (S) 2,714 5.9 -7.3°
Maximum altitude 02:56:57 88° 275° (W) 979 4.1 -6.6°
Drops below altitude 10° 03:03:13 10° 10° (N) 2,722 7.3 -5.9°
Sets 03:05:43 0° 10° (N) 3,672 8.0 -5.6°
